Home > Time Zones > World Clock > Weather > U.S.A. > Waco > Past weeks

Flag for U.S.A. Weather past 2 weeks in Waco, Texas, U.S.A.

Now
91 °F

Sunny.


Feels Like: 97 °F
Forecast: 75 / 97 °F
Wind: 6 mph from Southeast

Location: Waco Regional Airport

Current Time: Jul 22, 2014 at 1:31:07 PM

Latest Report: Jul 22, 2014 at 11:51 AM


Visibility: 10 mi

Pressure: 30.03 "Hg

Humidity: 50%

Dew point: 70 °F

Location of WacoLocation

Historic Weather in Waco — Graph

°F

Waco temperature yesterday

Maximum temperature yesterday: 96 °F (at 2:51 PM)
Minimum temperature yesterday: 77 °F (at 4:51 AM)
Average temperature yesterday: 86 °F

Past Weeks' High & Low Weather Summary

 TemperatureHumidityPressure
High99 °F (Jul 14, 3:51 PM)100% (Jul 18, 2:02 AM)30.16 "Hg (Jul 18, 2:02 AM)
Low65 °F (Jul 19, 6:51 AM)30% (Jul 12, 3:51 PM)29.81 "Hg (Jul 17, 5:51 PM)
Average82 °F65%29.98 "Hg
* Reported Jul 7 11:51 AM — Jul 22 11:51 AM, Waco, Weather by CustomWeather, © 2014

Note: Actual official high and low records may vary slightly from our data, if they occured in-between our weather recording intervals... More about our weather records

Advertising

Waco weather history for previous 24 hours

 ConditionsComfort  
Time TempWeatherWind HumidityBarometerVisibility
11:51 AM
Jul 22
91 °FSunny.6 mph50%30.03 "Hg10 mi
10:51 AM88 °FSunny.No wind57%30.04 "Hg10 mi
9:51 AM84 °FSunny.No wind70%30.03 "Hg10 mi
8:51 AM81 °FSunny.5 mph77%30.04 "Hg10 mi
7:51 AM79 °FSunny.7 mph84%30.03 "Hg9 mi
6:51 AM77 °FFog.5 mph90%30.01 "Hg6 mi
5:51 AM77 °FClear.5 mph90%29.99 "Hg7 mi
4:51 AM77 °FClear.3 mph90%29.98 "Hg8 mi
3:51 AM78 °FClear.5 mph87%29.98 "Hg8 mi
2:51 AM79 °FClear.8 mph84%29.98 "Hg9 mi
1:51 AM79 °FClear.7 mph84%29.99 "Hg10 mi
12:51 AM79 °FClear.5 mph82%29.99 "Hg10 mi
11:51 PM
Jul 21
81 °FClear.6 mph77%29.98 "Hg10 mi
10:51 PM82 °FClear.6 mph74%29.98 "Hg10 mi
9:51 PM84 °FClear.6 mph70%29.95 "Hg10 mi
8:51 PM87 °FSunny.7 mph61%29.94 "Hg10 mi
7:51 PM91 °FSunny.12 mph52%29.93 "Hg10 mi
6:51 PM94 °FPassing clouds.10 mph48%29.92 "Hg10 mi
5:51 PM95 °FScattered clouds.6 mph44%29.93 "Hg10 mi
4:51 PM96 °FScattered clouds.8 mph44%29.94 "Hg10 mi
3:51 PM96 °FSunny.8 mph46%29.95 "Hg10 mi
2:51 PM96 °FMostly cloudy.8 mph47%29.98 "Hg10 mi
1:51 PM95 °FSunny.8 mph51%29.99 "Hg10 mi
Weather by CustomWeather, © 2014

See weather overviewHow to use our weather pages